Regional Weather Roundup
Issued by NWS Wakefield, VA

Home | Current Version | Previous Version | Graphics & Text | Print | Product List | Glossary On
Versions: 1 2 3 4 5 6 7 8 9 10 11 12 13 14 15 16 17 18 19 20 21 22 23 24 25 26 27 28 29 30 31 32 33 34 35 36 37 38 39 40 41 42 43 44 45 46 47 48 49 50
815
ASUS41 KAKQ 060314
RWRAKQ

REGIONAL WEATHER ROUNDUP
NATIONAL WEATHER SERVICE WAKEFIELD VA
1000 PM EST FRI FEB 05 2016

Note: "fair" indicates few or no clouds below 12,000 feet with no
significant weather and/or obstructions to visibility. * = Denotes
station may not report precipitation (e.g., rain,snow,etc.),
thunder or fog.

VAZ042-051-052>054-056-060400-
NORTHERN VIRGINIA

CITY           SKY/WX    TMP DP  RH WIND       PRES   REMARKS
WASH NATIONAL  FAIR      35  18  49 NW7       30.40R
DULLES         MOCLDY    32  17  54 N5        30.38S
FORT BELVOIR   FAIR      28  20  73 CALM      30.40R
QUANTICO       FAIR      32  23  69 NW6       30.42R
FREDERICKSBRG* FAIR      29  22  75 CALM      30.40R
STAFFORD*      FAIR      25  20  79 NW3       30.44R
WARRENTON      FAIR      25  24  93 CALM      30.39R
CULPEPER*      FAIR      27  21  78 CALM      30.40R
MANASSAS*      CLEAR     27  23  86 NW6       30.39S
LEESBURG*      FAIR      32  23  69 N6        30.39S
WINCHESTER     FAIR      28  19  69 CALM      30.37R
FRONT ROYAL*   FAIR      32  16  51 CALM      30.36S
LURAY*         FAIR      30  19  64 SE3       30.36S
$$

VAZ048-049-060>072-079>083-060400-
CENTRAL AND SOUTH CENTRAL VIRGINIA

CITY           SKY/WX    TMP DP  RH WIND       PRES   REMARKS
RICHMOND       FAIR      30  25  81 CALM      30.40R
CHESTERFIELD*  FAIR      28  12  50 CALM      30.41R
PETERSBURG*    FAIR      28  26  91 CALM      30.41R
HANOVER        FAIR      28  21  75 CALM      30.41R
TAPPAHANNOCK*  FAIR      29  22  74 CALM      30.40S
QUINTON*       FAIR      30  22  72 CALM      30.39S
CHARLOTTSVILLE FAIR      35  12  38 CALM      30.38R
GORDONSVILLE*  FAIR      27  22  82 CALM      30.38S
ORANGE*        FAIR      28  21  74 CALM      30.40R
LOUISA*        FAIR      27  16  63 CALM      30.37S
BUMPASS*       FAIR      27  18  69 CALM      30.38S
FARMVILLE*     FAIR      28  23  82 CALM      30.39R
CREWE*         FAIR      27  25  91 CALM      30.39R
FORT PICKETT*  FAIR      30  22  74 MISG      30.39R
CHASE CITY*    FAIR      29  24  80 CALM      30.39R
CLARKSVILLE*   FAIR      30  21  69 CALM      30.39R
SOUTH HILL*    FAIR      28  24  87 CALM      30.45R
LAWRENCEVILLE* FAIR      31  23  72 CALM      30.39R
EMPORIA*       FAIR      28  27  93 CALM      30.42R
$$

VAZ088>098-060400-
SOUTHEAST VIRGINIA

CITY           SKY/WX    TMP DP  RH WIND       PRES   REMARKS
NORFOLK        FAIR      40  21  46 N13       30.39R
VIRGINIA BEACH FAIR      40  24  53 N9        30.38R
NORFOLK NAVAL  FAIR      38  24  57 N8        30.40S
WEST POINT*    FAIR      30  24  79 CALM      30.42R
SALUDA*        FAIR      36  25  64 N7        30.39S
NEWPORT NEWS   FAIR      34  23  64 N5        30.40R
LANGLEY AFB    FAIR      34  24  66 VRB1      30.38R
FORT EUSTIS    FAIR      35  17  48 VRB2      30.38R
WILLIAMSBURG*  FAIR      34  28  80 CALM      30.40S
HR EXEC AP*    FAIR      30  25  80 CALM      30.41R
FRANKLIN*      FAIR      29  28  92 CALM      30.41R
US460-WAKEFLD  FAIR      29  26  89 CALM      30.40R
$$

VAZ020-022-025-037-045-060400-
WEST CENTRAL AND SOUTHWEST VIRGINIA

CITY           SKY/WX    TMP DP  RH WIND       PRES   REMARKS
STAUNTON*      FAIR      31  21  65 S3        30.38R
WAYNESBORO*    FAIR      28  12  51 CALM      30.35R
HOT SPRINGS VA FAIR      24  13  63 CALM      30.23R
LYNCHBURG      FAIR      28  15  58 CALM      30.39R
DANVILLE       FAIR      34  17  50 NW3       30.40R
SOUTH BOSTON*  FAIR      30  24  78 CALM      30.40R
MARTINSVILLE   FAIR      24  17  75 CALM      30.41S
ROANOKE        FAIR      34  13  41 N3        30.39S
BLACKSBURG     FAIR      27  17  65 CALM      30.37F
DUBLIN*        FAIR      29  15  56 CALM      30.35F
MARION*        FAIR      27  15  60 CALM      30.35S
HILLSVILLE*    FAIR      28  13  52 NW6       30.30S
RICHLANDS*     FAIR      30   8  39 CALM      30.32S
WISE*          FAIR      30   9  40 CALM      30.33S
ABINGDON*      FAIR      29  14  53 CALM      30.35R
$$

MDZ021>025-VAZ099-100-060400-
SOUTHERN MARYLAND AND THE DELMARVA PENINSULA

CITY           SKY/WX    TMP DP  RH WIND       PRES   REMARKS
PATUXENT RIVER PTCLDY    35  21  56 NW9       30.39R
BAY BRIDGE APT   N/A     34  21  60 CALM      30.38S
LEONARDTOWN    CLEAR     32  21  64 CALM      30.40S
DOVER          CLEAR     34  24  65 W8        30.35S
GEORGETOWN     CLEAR     33  23  66 NW5       30.37R
EASTON         CLEAR     33  24  70 CALM      30.42R
CAMBRIDGE      CLEAR     34  23  64 NW7       30.38R
SALISBURY      CLEAR     34  23  64 NW6       30.37R
OCEAN CITY     CLEAR     34  23  64 NW6       30.36R
WALLOPS ISLAND FAIR      34  23  64 NW6       30.38R
ACCOMACK*      FAIR      36  23  60 N8        30.38S
$$

NCZ012>017-030>032-060400-
NORTH CENTRAL AND EASTERN NORTH CAROLINA

CITY           SKY/WX    TMP DP  RH WIND       PRES   REMARKS
ROANOKE RAPIDS FAIR      30  27  86 CALM      30.39S
RALEIGH        PTCLDY    32  24  72 CALM      30.40R
ELIZABETH CITY CLEAR     35  29  78 N5        30.39R
AHOSKIE*       CLEAR     30  28  92 CALM      30.40S
EDENTON*       CLEAR     34  33  97 CALM      30.40R
CURRITUCK*     CLEAR     35  32  90 N5        30.39S
KILL DEVIL HLS CLEAR     39  29  66 N7        30.36S
MANTEO         CLEAR     39  31  72 N7        30.38F
CAPE HATTERAS  PTCLDY    41  30  65 NE8       30.37S
TARBORO*       FAIR      32  31  97 CALM      30.42R
GOLDSBORO      CLEAR     34  32  93 CALM      30.40R
WASHINGTON     CLEAR     36  28  72 CALM      30.40R
GREENVILLE     CLEAR     34  32  93 CALM      30.40R
NEW BERN       CLEAR     36  28  73 CALM      30.41R
WILMINGTON     CLEAR     36  32  85 CALM      30.40R
$$

VAZ048-060400-
ELSEWHERE

CITY           SKY/WX    TMP DP  RH WIND       PRES   REMARKS
HARRISBURG PA  PTCLDY    32  18  56 NW12      30.36R WCI  23
BALTIMORE      PTCLDY    30  19  63 W5        30.37S
ANNAPOLIS      CLEAR     34  23  64 NW3       30.38S
ANDREWS AFB    FAIR      33  18  53 NW5       30.37R
PHILADELPHIA   PTCLDY    35  16  45 N6        30.37R
HENDERSON NC   CLEAR     30  25  79 CALM      30.39R
GREENSBORO     PTCLDY    36  11  35 CALM      30.37R
ROCKY MOUNT    CLEAR     32  29  88 CALM      30.41R
$$

VAZ100-060400-
MARINE

STATION/POSITION TIME  TEMP    WIND        PRES    WAVE   SWELL
                       AIR SEA DIR/SP/G            HT/PER HT/PER
                 (UTC) (F)     (DEG/KT/KT) (MB)    (FT/S) (FT/S)
BRANDYWINE LGT   0200   38     340/ 14/ 16 1027.4R
CAPE MAY NJ      0200   39 42  330/ 11/ 17 1027.3R
LEWES DE         0200   39 42  320/ 13/ 15 1027.5R
15NM E FENWICK I 0250   41 45              1027.0R   6/ 8
OCEAN-CITY-INLET 0200   37 42  340/  9/ 12 1026.6S
WACHAPREAGUE VA  0200   37 45  280/  1/  2 1028.5R
GOOSES REEF MD   0300   38 39  340/ 12/ 14 1029.7R   1/ 3
COVE POINT MD    0200   37     340/ 10/ 12 1029.4R
SOLOMONS ISLAND  0200   37 42  330/  5/  7   N/A
BISHOPS HEAD MD  0200   36 41  320/  8/ 10 1027.7R
POTOMAC MD       0300   37 41  340/  8/ 10 1028.2R   1/ 2
CAMBRIDGE MD     0200   39 41  310/ 11/ 15 1027.8R
LEWISETTA VA     0200   39 44  350/ 11/ 17 1028.7R
RAPPAHANNOCK LGT 0200          320/ 16/ 18 1028.8R
STINGRAY PT      0200   39 42  340/ 12/ 14 1028.8R   2/ 3
YORK RVR RNG VA  0200   40     350/ 13/ 15 1028.1R
YORKTOWN VA      0200   39 44  360/  7/  9 1028.7R
JAMESTOWN VA     0300   35 43   40/  2/  2   N/A     0
DOMINION TERM VA 0200   40      10/  1/  5 1029.0R
KIPTOPEKE VA     0200      44  360/ 11/ 17   N/A
CHES BAY BRIDGE  0200   41 43  330/ 15/ 17 1028.4R
CAPE HENRY VA    0200   41     350/ 17/ 19   N/A
CHESAPEAKE LGHT  0200   41     350/ 17/ 19 1029.1R
WILLOUBY STN VA  0200   40     340/  8/  9 1027.5S
CAPE HENRY BUOY  0228      46                N/A     5/10   2/11
1ST LANDING BUOY 0300      43                N/A     3/ 4
CAPE CHARLES BUO 0226      45                N/A     4/10   3/10
OFFSHORE WE BUOY 0221      49                N/A     6/ 9   5/ 9
64NM E OF VA BCH 0250   44 54  350/ 17/ 23 1027.8R   9/10   7/10
DUCK PIER NC     0200   42 45   10/ 14/ 15 1028.0R
44100 DUCK FRF   0224      47                N/A     7/11   2/11
44056 DUCK FRF   0211      45                N/A     6/11   2/11
OREGON INLET NC  0200   40 47  340/  7/ 11 1028.5R
HATTERAS NC      0200   43 54  360/ 15/ 18 1027.7S
DIAMOND SHLS NC  0250      72   10/ 19/ 27 1028.1F   7/11   5/11
$$




USA.gov is the U.S. government's official web portal to all federal, state and local government web resources and services.